Regional Weather Roundup
Issued by NWS Newport/Morehead, NC

Current Version | Previous Version | Graphics & Text | Print | Product List | Glossary Off
Versions: 1 2 3 4 5 6 7 8 9 10 11 12 13 14 15 16 17 18 19 20 21 22 23 24 25 26 27 28 29 30 31 32 33 34 35 36 37 38 39 40 41 42 43 44 45 46 47 48 49 50

000
ASUS42 KMHX 210825
RWRMHX
WEATHER ROUNDUP FOR EASTERN NORTH CAROLINA
NATIONAL WEATHER SERVICE NEWPORT/MOREHEAD CITY NC
400 AM EDT MON AUG 21 2017

NOTE: "FAIR" INDICATES FEW OR NO CLOUDS BELOW 12,000 FEET
WITH NO SIGNIFICANT WEATHER AND/OR OBSTRUCTIONS TO VISIBILITY

NCZ015>017-031-032-045>047-102-103-210900-
NORTH COAST

CITY           SKY/WX    TMP DP  RH WIND       PRES   REMARKS
EDENTON        CLOUDY    74  72  94 CALM      30.17S
ELIZABETH CITY CLEAR     75  75 100 E3        30.17S
KITTY HAWK     CLOUDY    76  76 100 CALM      30.15F FOG
MANTEO         CLOUDY    75  75  98 CALM      30.17S

$$

NCZ045>047-081-094-103-104-210900-
CENTRAL COAST

CITY           SKY/WX    TMP DP  RH WIND       PRES   REMARKS
FRISCO         PTCLDY    79  79 100 NE5       30.15F

$$

NCZ095-097-098-100-101-210900-
SOUTHERN COAST

CITY           SKY/WX    TMP DP  RH WIND       PRES   REMARKS
BEAUFORT       CLOUDY    77  77 100 NE3       30.15S
CEDAR ISLAND   NOT AVBL
JACKSONVILLE   CLOUDY    75  75 100 CALM      30.15S
PINEY ISLAND   PTSUNNY  N/A N/A N/A CALM      30.16R
WILMINGTON     CLOUDY    76  75  97 N3        30.14S


$$

NCZ011>013-027>030-043-044-078>080-089-090>093-098-210900-
COASTAL PLAIN

CITY           SKY/WX    TMP DP  RH WIND       PRES   REMARKS
AHOSKIE        NOT AVBL
CLINTON        CLOUDY    73  73 100 CALM      30.16S
ELIZABETHTOWN  NOT AVBL
GOLDSBORO      CLEAR     74  73  98 CALM      30.16S FOG
GREENVILLE     CLOUDY    73  73 100 CALM      30.17S FOG
HAVELOCK       CLOUDY    74  72  93 CALM      30.16S
KENANSVILLE    FOG       70  70 100 CALM      30.16S VSB<1/4
KINSTON        FOG       73  72  98 CALM      30.17S VSB 1/4
NEW BERN       CLOUDY    73  73 100 CALM      30.17S FOG
RICHLANDS      PTCLDY    72  72 100 CALM      30.16S FOG
ROCKY MOUNT    FOG       70  70 100 CALM      30.17R VSB 3/4
WASHINGTON     FOG       72  71  98 CALM      30.16S VSB 1
WHITEVILLE     MOCLDY    76  75  97 CALM      30.14S FOG

$$

AMZ130-135-150-152-154-156-158-170-250-252-270-ANZ085-086-088-633-658-670-210900-
MARINE OBSERVATIONS

STATION/POSITION TIME  TEMP    WIND        PRES    WAVE   SWELL
                       AIR SEA DIR/SP/G            HT/PER HT/PER
                 (UTC) (F)     (DEG/KT/KT) (MB)    (FT/S) (FT/S)
CHESAPEAKE LIGHT NOT AVBL
64 E VA BEACH    0750   78 79   60/  6/  6 1022.5    2/ 9   2/ 9
DUCK             0800   78 78   60/  5/  5 1021.2
2 E DUCK         0800      79                N/A     2/ 8
OREGON INLET     0800   77 79   40/  4/  5 1021.2
13E OREGON INLT  0748      79                N/A     2/ 9   2/ 9
HATTERAS CG      0800   79 78   90/  2/  5 1020.9
DIAMOND BUOY     0750   82 85   30/  6/  8 1020.7    2/ 8   2/ 8
CAPE LOOKOUT     0800   81      20/  4/  4 1020.7
BEAUFORT LAB     0800   78 81   50/  4/  4 1020.5
30 SE NEW RVR IN 0708   81 84  220/  2/  4 1020.8
30 SE NEW RVR IN 0813      84                N/A     2/ 8
27 SE WRIGHTSVLE 0808   83 84   30/  2/  6 1020.5
5 SE WRIGHTSVLE  0708   82 83   60/  2/  6 1020.5
225 S CAPE HAT   0750   83 84  150/  8/ 10 1020.7    3/ 9   2/ 9
41 SE CHARLESTON 0810   83 85  290/  6/  8 1019.3

$$




USA.gov is the U.S. government's official web portal to all federal, state and local government web resources and services.